• In Netherlands
  • List of Countries
  • For 7 days
  • Water Temperature
  • Satellite Maps
  • Weather Map
  • Weather Widgets
  • user-avatar
    Login

    Hourly Weather Sunny Beach

    Today, 24 April, Monday

    Time Temperature Precipitation Wind Pressure Humidity
    00:00 +2°C° 0 mm 5 mps 738 mmHg 81%
    01:00 +1°C° 0 mm 5 mps 738 mmHg 82%
    02:00 +1°C° 0 mm 4 mps 738 mmHg 83%
    03:00 0°C° 0 mm 4 mps 738 mmHg 84%
    04:00 0°C° 0 mm 4 mps 739 mmHg 84%
    05:00 0°C° 0 mm 4 mps 739 mmHg 85%
    06:00 +1°C° 0 mm 4 mps 739 mmHg 80%
    07:00 +3°C° 0 mm 5 mps 740 mmHg 75%
    08:00 +6°C° 0 mm 5 mps 740 mmHg 70%
    09:00 +7°C° 0 mm 5 mps 741 mmHg 64%
    10:00 +10°C° 0 mm 4 mps 741 mmHg 58%
    11:00 +11°C° 0 mm 4 mps 741 mmHg 52%
    12:00 +11°C° 0 mm 4 mps 741 mmHg 50%
    13:00 +12°C° 0 mm 3 mps 741 mmHg 48%
    14:00 +13°C° 0 mm 3 mps 741 mmHg 46%
    15:00 +14°C° 0 mm 2 mps 741 mmHg 48%
    16:00 +13°C° 0 mm 2 mps 741 mmHg 49%
    17:00 +13°C° 0 mm 2 mps 741 mmHg 51%
    18:00 +10°C° 0 mm 2 mps 741 mmHg 59%
    19:00 +8°C° 0 mm 2 mps 741 mmHg 66%
    20:00 +5°C° 0 mm 3 mps 741 mmHg 73%
    21:00 +4°C° 0 mm 3 mps 741 mmHg 74%
    22:00 +4°C° 0 mm 3 mps 741 mmHg 75%
    23:00 +4°C° 0 mm 3 mps 742 mmHg 76%

    Tomorrow, 25 April, Tuesday

    Time Temperature Precipitation Wind Pressure Humidity
    00:00 +3°C° 0 mm 3 mps 742 mmHg 76%
    01:00 +3°C° 0 mm 3 mps 742 mmHg 77%
    02:00 +4°C° 0 mm 2 mps 742 mmHg 77%
    03:00 +4°C° 0 mm 2 mps 742 mmHg 77%
    04:00 +4°C° 0 mm 2 mps 741 mmHg 78%
    05:00 +3°C° 0 mm 2 mps 741 mmHg 78%
    06:00 +5°C° 0 mm 2 mps 741 mmHg 73%
    07:00 +8°C° 0 mm 3 mps 742 mmHg 67%
    08:00 +10°C° 0 mm 3 mps 742 mmHg 62%
    09:00 +11°C° 0 mm 3 mps 742 mmHg 58%
    10:00 +13°C° 0 mm 4 mps 742 mmHg 55%
    11:00 +14°C° 0 mm 4 mps 742 mmHg 52%
    12:00 +14°C° 0 mm 4 mps 742 mmHg 51%
    13:00 +15°C° 0 mm 4 mps 742 mmHg 51%
    14:00 +15°C° 0 mm 5 mps 741 mmHg 51%
    15:00 +15°C° 0 mm 4 mps 741 mmHg 54%
    16:00 +14°C° 0 mm 4 mps 741 mmHg 57%
    17:00 +13°C° 0 mm 4 mps 740 mmHg 60%
    18:00 +11°C° 0 mm 4 mps 740 mmHg 66%
    19:00 +8°C° 0 mm 4 mps 740 mmHg 71%
    20:00 +7°C° 0 mm 3 mps 740 mmHg 76%
    21:00 +5°C° 0 mm 3 mps 740 mmHg 75%
    22:00 +4°C° 0 mm 3 mps 740 mmHg 73%
    23:00 +5°C° 0 mm 2 mps 740 mmHg 72%

    Day after tomorrow, 26 April, Wednesday

    Time Temperature Precipitation Wind Pressure Humidity
    00:00 +4°C° 0 mm 2 mps 739 mmHg 71%
    01:00 +4°C° 0 mm 2 mps 739 mmHg 70%
    02:00 +5°C° 0 mm 1 mps 739 mmHg 70%
    03:00 +4°C° 0 mm 1 mps 739 mmHg 69%
    04:00 +4°C° 0 mm 1 mps 739 mmHg 68%
    05:00 +4°C° 0 mm 1 mps 738 mmHg 66%
    06:00 +7°C° 0 mm 1 mps 739 mmHg 61%
    07:00 +10°C° 0 mm 1 mps 739 mmHg 56%
    08:00 +12°C° 0 mm 1 mps 739 mmHg 51%
    09:00 +14°C° 0 mm 1 mps 739 mmHg 50%
    10:00 +15°C° 0 mm 2 mps 739 mmHg 49%
    11:00 +17°C° 0 mm 2 mps 739 mmHg 47%
    12:00 +17°C° 0 mm 3 mps 739 mmHg 48%
    13:00 +18°C° 0 mm 3 mps 739 mmHg 48%
    14:00 +19°C° 0 mm 3 mps 738 mmHg 48%
    15:00 +18°C° 0 mm 3 mps 738 mmHg 52%
    16:00 +18°C° 0 mm 3 mps 738 mmHg 56%
    17:00 +17°C° 0 mm 3 mps 738 mmHg 60%
    18:00 +14°C° 0 mm 3 mps 738 mmHg 65%
    19:00 +12°C° 0 mm 3 mps 738 mmHg 70%
    20:00 +9°C° 0 mm 3 mps 738 mmHg 75%
    21:00 +9°C° 0 mm 3 mps 738 mmHg 76%
    22:00 +8°C° 0 mm 2 mps 738 mmHg 76%
    23:00 +8°C° 0 mm 2 mps 738 mmHg 76%

    27 April, Thursday

    Time Temperature Precipitation Wind Pressure Humidity
    00:00 +7°C° 0 mm 2 mps 737 mmHg 76%
    01:00 +7°C° 0 mm 2 mps 737 mmHg 76%
    02:00 +7°C° 0 mm 1 mps 737 mmHg 76%
    03:00 +7°C° 0 mm 1 mps 737 mmHg 76%
    04:00 +7°C° 0 mm 1 mps 737 mmHg 76%
    05:00 +7°C° 0 mm 1 mps 737 mmHg 76%
    06:00 +9°C° 0 mm 1 mps 737 mmHg 69%
    07:00 +12°C° 0 mm 1 mps 737 mmHg 63%
    08:00 +15°C° 0 mm 1 mps 738 mmHg 56%
    09:00 +16°C° 0 mm 2 mps 738 mmHg 53%
    10:00 +18°C° 0 mm 2 mps 738 mmHg 51%
    11:00 +19°C° 0 mm 2 mps 738 mmHg 48%
    12:00 +20°C° 0 mm 3 mps 737 mmHg 48%
    13:00 +20°C° 0 mm 3 mps 737 mmHg 47%
    14:00 +21°C° 0 mm 3 mps 737 mmHg 47%
    15:00 +20°C° 0 mm 3 mps 737 mmHg 51%
    16:00 +20°C° 0 mm 3 mps 737 mmHg 55%
    17:00 +19°C° 0 mm 3 mps 736 mmHg 59%
    18:00 +17°C° 0 mm 3 mps 736 mmHg 63%
    19:00 +13°C° 0 mm 3 mps 736 mmHg 68%
    20:00 +11°C° 0 mm 3 mps 736 mmHg 72%
    21:00 +10°C° 0 mm 2 mps 736 mmHg 72%
    22:00 +10°C° 0 mm 2 mps 736 mmHg 71%
    23:00 +9°C° 0 mm 2 mps 736 mmHg 70%

    28 April, Friday

    Time Temperature Precipitation Wind Pressure Humidity
    00:00 +9°C° 0 mm 2 mps 736 mmHg 70%
    01:00 +9°C° 0 mm 2 mps 736 mmHg 70%
    02:00 +8°C° 0 mm 2 mps 735 mmHg 70%
    03:00 +8°C° 0 mm 2 mps 735 mmHg 69%
    04:00 +8°C° 0 mm 2 mps 735 mmHg 69%
    05:00 +8°C° 0 mm 2 mps 735 mmHg 69%
    06:00 +10°C° 0 mm 2 mps 735 mmHg 64%
    07:00 +14°C° 0 mm 2 mps 735 mmHg 60%
    08:00 +16°C° 0 mm 2 mps 735 mmHg 55%
    09:00 +18°C° 0 mm 3 mps 735 mmHg 53%
    10:00 +19°C° 0 mm 3 mps 735 mmHg 51%
    11:00 +21°C° 0 mm 4 mps 735 mmHg 49%
    12:00 +21°C° 0 mm 4 mps 735 mmHg 49%
    13:00 +22°C° 0 mm 4 mps 734 mmHg 49%
    14:00 +23°C° 0 mm 5 mps 734 mmHg 48%
    15:00 +22°C° 0 mm 4 mps 734 mmHg 52%
    16:00 +22°C° 0 mm 4 mps 733 mmHg 56%
    17:00 +22°C° 0 mm 4 mps 733 mmHg 60%
    18:00 +19°C° 0 mm 4 mps 733 mmHg 62%
    19:00 +17°C° 0 mm 4 mps 733 mmHg 65%
    20:00 +14°C° 0 mm 4 mps 733 mmHg 68%
    21:00 +13°C° 0 mm 4 mps 733 mmHg 63%
    22:00 +13°C° 0 mm 4 mps 733 mmHg 59%
    23:00 +12°C° 0 mm 4 mps 733 mmHg 55%

    29 April, Saturday

    Time Temperature Precipitation Wind Pressure Humidity
    00:00 +12°C° 0 mm 4 mps 732 mmHg 53%
    01:00 +12°C° 0 mm 4 mps 732 mmHg 50%
    02:00 +12°C° 0 mm 4 mps 732 mmHg 48%
    03:00 +12°C° 0 mm 4 mps 732 mmHg 51%
    04:00 +12°C° 0 mm 4 mps 732 mmHg 53%
    05:00 +11°C° 0 mm 3 mps 732 mmHg 56%
    06:00 +13°C° 0 mm 3 mps 733 mmHg 58%
    07:00 +16°C° 0 mm 3 mps 733 mmHg 60%
    08:00 +17°C° 0 mm 2 mps 733 mmHg 63%
    09:00 +18°C° 0 mm 2 mps 733 mmHg 60%
    10:00 +20°C° 0 mm 2 mps 734 mmHg 58%
    11:00 +21°C° 0 mm 2 mps 734 mmHg 56%
    12:00 +23°C° 0 mm 2 mps 734 mmHg 56%
    13:00 +23°C° 0 mm 2 mps 734 mmHg 56%
    14:00 +24°C° 0 mm 2 mps 734 mmHg 56%
    15:00 +23°C° 0.4 mm 2 mps 734 mmHg 61%
    16:00 +21°C° 0.4 mm 3 mps 734 mmHg 66%
    17:00 +20°C° 0.4 mm 3 mps 733 mmHg 71%
    18:00 +18°C° 0.1 mm 3 mps 733 mmHg 77%
    19:00 +17°C° 0.1 mm 3 mps 734 mmHg 83%
    20:00 +14°C° 0.1 mm 3 mps 734 mmHg 88%
    21:00 +13°C° 0 mm 3 mps 734 mmHg 89%
    22:00 +13°C° 0 mm 3 mps 734 mmHg 89%
    23:00 +13°C° 0 mm 3 mps 733 mmHg 89%
    Show more